CCA1305 ZBAA-ZGSZ

Flight info

Callsign CCA1305
Flight time N/A
Altitude 38100
Route RUSDO6J RUSDO W45 IPLEV/K0880S1190 B458 DADGA/K0895S1160 W37 GUSIV/K0898S1190 W37 PEXID/K0893S1220 W37 OMBEB/K0900S1190 R473 NNX/K0902S1220 R473 NOLON W90 POU W7 SAREX
Aircraft B77W/H-SDE1E2E3FGHIJ2J3J4J5M1RWXY/LB1D1

Departure

Time N/A
Airport Beijing Capital International Airport (ZBAA)

Arrival

Time 2026-04-21 06:49
Airport Shenzhen Bao'an International Airport (ZGSZ)
Time Latitude Longitude Altitude Speed Heading
2026-04-21 05:58 28.20828 113.71626 37973 ft 481 kts 190°
2026-04-21 05:59 28.14136 113.71133 37971 ft 486 kts 190°
2026-04-21 06:00 28.03980 113.70276 37951 ft 485 kts 191°
2026-04-21 06:00 27.97225 113.69665 37981 ft 489 kts 191°
2026-04-21 06:01 27.90434 113.69056 37974 ft 486 kts 191°
2026-04-21 06:01 27.83662 113.68449 37970 ft 487 kts 191°
2026-04-21 06:02 27.76935 113.67848 37971 ft 487 kts 191°
2026-04-21 06:02 27.70144 113.67242 37973 ft 489 kts 191°
2026-04-21 06:03 27.63358 113.66641 37981 ft 491 kts 191°
2026-04-21 06:03 27.56493 113.66464 37988 ft 492 kts 188°
2026-04-21 06:04 27.49608 113.66348 37987 ft 496 kts 188°
2026-04-21 06:04 27.42749 113.66219 37985 ft 492 kts 189°
2026-04-21 06:05 27.35848 113.66074 37986 ft 498 kts 188°
2026-04-21 06:05 27.28928 113.65929 37990 ft 495 kts 188°
2026-04-21 06:06 27.22043 113.65779 37985 ft 495 kts 189°
2026-04-21 06:06 27.15115 113.66541 37972 ft 514 kts 174°
2026-04-21 06:07 27.08153 113.68566 37974 ft 515 kts 172°
2026-04-21 06:07 27.01196 113.70628 37961 ft 518 kts 172°
2026-04-21 06:08 26.94253 113.72682 37968 ft 518 kts 172°
2026-04-21 06:08 26.87248 113.74749 37968 ft 516 kts 172°
2026-04-21 06:09 26.80249 113.76807 37978 ft 522 kts 172°
2026-04-21 06:09 26.73257 113.78866 37987 ft 520 kts 172°
2026-04-21 06:10 26.66265 113.81052 38008 ft 522 kts 171°
2026-04-21 06:10 26.59274 113.83253 38004 ft 518 kts 171°
2026-04-21 06:11 26.52267 113.85448 38005 ft 524 kts 171°
2026-04-21 06:11 26.45228 113.87575 38025 ft 523 kts 172°
2026-04-21 06:12 26.38213 113.89594 38040 ft 521 kts 172°
2026-04-21 06:12 26.31149 113.91627 38077 ft 524 kts 172°
2026-04-21 06:13 26.24116 113.93655 38113 ft 521 kts 172°
2026-04-21 06:13 26.17106 113.95673 38115 ft 522 kts 172°
2026-04-21 06:14 26.10048 113.97704 38130 ft 524 kts 172°
2026-04-21 06:14 26.03020 113.99725 38137 ft 522 kts 172°
2026-04-21 06:15 25.95958 114.01802 38131 ft 523 kts 171°
2026-04-21 06:15 25.88923 114.03898 38097 ft 522 kts 171°
2026-04-21 06:16 25.81905 114.05984 38070 ft 522 kts 171°
2026-04-21 06:16 25.74907 114.08061 38042 ft 521 kts 171°
2026-04-21 06:17 25.67885 114.10139 38034 ft 523 kts 171°
2026-04-21 06:17 25.60840 114.12224 38037 ft 523 kts 171°
2026-04-21 06:18 25.53809 114.14301 38032 ft 521 kts 171°
2026-04-21 06:18 25.46799 114.16369 38035 ft 522 kts 171°
2026-04-21 06:19 25.39777 114.18438 38024 ft 522 kts 170°
2026-04-21 06:19 25.32707 114.20519 38010 ft 522 kts 170°
2026-04-21 06:20 25.25718 114.22574 38016 ft 523 kts 170°
2026-04-21 06:20 25.18638 114.24652 38005 ft 521 kts 170°
2026-04-21 06:21 25.11601 114.26416 38002 ft 514 kts 180°
2026-04-21 06:21 25.04618 114.26189 37995 ft 500 kts 196°
2026-04-21 06:22 24.97768 114.24754 37990 ft 497 kts 198°
2026-04-21 06:22 24.90971 114.23281 38004 ft 501 kts 198°
2026-04-21 06:23 24.84142 114.21801 38013 ft 499 kts 198°
2026-04-21 06:23 24.77344 114.20327 38029 ft 499 kts 198°
2026-04-21 06:24 24.70465 114.18834 38035 ft 500 kts 198°
2026-04-21 06:24 24.63644 114.17356 37970 ft 502 kts 197°
2026-04-21 06:24 24.60196 114.16609 37667 ft 502 kts 198°
2026-04-21 06:25 24.56790 114.15872 37275 ft 500 kts 197°
2026-04-21 06:25 24.53411 114.15143 36829 ft 497 kts 197°
2026-04-21 06:25 24.50013 114.14409 36389 ft 495 kts 197°
2026-04-21 06:25 24.46647 114.13680 35949 ft 495 kts 197°
2026-04-21 06:26 24.43267 114.12950 35501 ft 494 kts 197°
2026-04-21 06:26 24.39853 114.12213 35049 ft 493 kts 197°
2026-04-21 06:26 24.36557 114.11354 34549 ft 488 kts 203°
2026-04-21 06:26 24.33416 114.09984 34053 ft 476 kts 212°
2026-04-21 06:27 24.30571 114.08245 33563 ft 466 kts 216°
2026-04-21 06:27 24.27799 114.06429 33089 ft 458 kts 216°
2026-04-21 06:27 24.25155 114.04623 32639 ft 450 kts 217°
2026-04-21 06:27 24.22492 114.02763 32198 ft 451 kts 217°
2026-04-21 06:28 24.19843 114.00909 31766 ft 460 kts 217°
2026-04-21 06:28 24.17143 113.99029 31327 ft 461 kts 217°
2026-04-21 06:28 24.14443 113.97151 30892 ft 460 kts 217°
2026-04-21 06:28 24.11751 113.95259 30457 ft 460 kts 220°
2026-04-21 06:29 24.09252 113.93086 30026 ft 457 kts 226°
2026-04-21 06:29 24.06868 113.90752 29593 ft 457 kts 226°
2026-04-21 06:29 24.04512 113.88428 29165 ft 460 kts 226°
2026-04-21 06:29 24.02111 113.86060 28733 ft 463 kts 226°
2026-04-21 06:30 23.99734 113.83722 28306 ft 459 kts 226°
2026-04-21 06:30 23.97386 113.81414 27883 ft 454 kts 226°
2026-04-21 06:30 23.95038 113.79107 27456 ft 450 kts 226°
2026-04-21 06:30 23.92720 113.76830 27031 ft 448 kts 226°
2026-04-21 06:31 23.90421 113.74574 26608 ft 447 kts 226°
2026-04-21 06:31 23.88113 113.72311 26179 ft 444 kts 226°
2026-04-21 06:31 23.85837 113.70079 25753 ft 441 kts 226°
2026-04-21 06:31 23.83540 113.67828 25321 ft 439 kts 226°
2026-04-21 06:32 23.81276 113.65611 24893 ft 436 kts 225°
2026-04-21 06:32 23.79039 113.63422 24473 ft 434 kts 226°
2026-04-21 06:32 23.76801 113.61232 24070 ft 432 kts 226°
2026-04-21 06:32 23.74550 113.59030 23661 ft 431 kts 225°
2026-04-21 06:33 23.72327 113.56857 23255 ft 430 kts 225°
2026-04-21 06:33 23.70115 113.54697 22855 ft 427 kts 225°
2026-04-21 06:33 23.67914 113.52548 22455 ft 426 kts 225°
2026-04-21 06:33 23.65696 113.50384 22063 ft 424 kts 225°
2026-04-21 06:34 23.63507 113.48247 21679 ft 421 kts 225°
2026-04-21 06:34 23.61319 113.46115 21295 ft 418 kts 225°
2026-04-21 06:34 23.59147 113.43999 20916 ft 415 kts 225°
2026-04-21 06:34 23.57010 113.41917 20536 ft 413 kts 225°
2026-04-21 06:35 23.54836 113.39910 20147 ft 412 kts 219°
2026-04-21 06:35 23.52399 113.38278 19756 ft 411 kts 210°
2026-04-21 06:35 23.49748 113.37086 19364 ft 409 kts 203°
2026-04-21 06:35 23.47101 113.36065 18984 ft 403 kts 203°
2026-04-21 06:36 23.44449 113.35054 18577 ft 396 kts 203°
2026-04-21 06:36 23.41862 113.34068 18081 ft 391 kts 202°
2026-04-21 06:36 23.39284 113.33086 17530 ft 389 kts 202°
2026-04-21 06:36 23.36748 113.32121 16967 ft 387 kts 202°
2026-04-21 06:37 23.34209 113.31154 16396 ft 384 kts 202°
2026-04-21 06:37 23.31689 113.30196 15821 ft 382 kts 202°
2026-04-21 06:37 23.29157 113.29234 15251 ft 380 kts 202°
2026-04-21 06:37 23.26691 113.28297 14900 ft 373 kts 202°
2026-04-21 06:38 23.24225 113.27359 14854 ft 378 kts 202°
2026-04-21 06:38 23.21724 113.26410 14823 ft 378 kts 202°
2026-04-21 06:38 23.19223 113.25460 14360 ft 382 kts 202°
2026-04-21 06:38 23.16701 113.24504 13773 ft 379 kts 202°
2026-04-21 06:39 23.14234 113.23569 13194 ft 376 kts 202°
2026-04-21 06:39 23.11782 113.22704 12728 ft 370 kts 197°
2026-04-21 06:39 23.09220 113.22390 12636 ft 364 kts 183°
2026-04-21 06:39 23.06690 113.22739 12630 ft 375 kts 170°
2026-04-21 06:40 23.04209 113.23695 12628 ft 382 kts 159°
2026-04-21 06:40 23.01919 113.25191 12608 ft 387 kts 147°
2026-04-21 06:40 22.99892 113.27174 12135 ft 394 kts 136°
2026-04-21 06:40 22.98211 113.29483 11549 ft 394 kts 129°
2026-04-21 06:41 22.96688 113.31941 10955 ft 393 kts 126°
2026-04-21 06:41 22.95266 113.34460 10472 ft 387 kts 123°
2026-04-21 06:41 22.93940 113.36938 10361 ft 377 kts 122°
2026-04-21 06:41 22.92643 113.39432 10354 ft 380 kts 122°
2026-04-21 06:42 22.91384 113.41919 10344 ft 367 kts 121°
2026-04-21 06:42 22.90194 113.44299 10351 ft 349 kts 121°
2026-04-21 06:42 22.89075 113.46558 10344 ft 333 kts 120°
2026-04-21 06:42 22.88388 113.48901 10392 ft 318 kts 100°
2026-04-21 06:43 22.88219 113.51250 10401 ft 307 kts 94°
2026-04-21 06:43 22.88176 113.53520 10390 ft 304 kts 92°
2026-04-21 06:43 22.88163 113.55834 10111 ft 310 kts 92°
2026-04-21 06:43 22.88158 113.58233 9271 ft 329 kts 92°
2026-04-21 06:44 22.88155 113.60736 8346 ft 342 kts 92°
2026-04-21 06:44 22.88147 113.63309 7488 ft 342 kts 95°
2026-04-21 06:44 22.87698 113.65775 6615 ft 334 kts 115°
2026-04-21 06:44 22.86513 113.67863 5780 ft 326 kts 134°
2026-04-21 06:45 22.84757 113.69334 4934 ft 318 kts 155°
2026-04-21 06:45 22.82770 113.70306 4116 ft 314 kts 158°
2026-04-21 06:45 22.80823 113.71389 3360 ft 309 kts 151°
2026-04-21 06:45 22.78971 113.72390 3019 ft 291 kts 155°
2026-04-21 06:46 22.77210 113.73354 2677 ft 277 kts 153°
2026-04-21 06:46 22.75564 113.74388 2328 ft 265 kts 150°
2026-04-21 06:46 22.74019 113.75421 1991 ft 254 kts 150°
2026-04-21 06:46 22.72537 113.76369 1656 ft 242 kts 153°
2026-04-21 06:47 22.71125 113.77177 1353 ft 212 kts 155°
2026-04-21 06:47 22.69887 113.77827 1081 ft 186 kts 156°
2026-04-21 06:47 22.68784 113.78426 849 ft 161 kts 155°
2026-04-21 06:47 22.67863 113.78925 639 ft 139 kts 156°
2026-04-21 06:48 22.67021 113.79385 451 ft 131 kts 156°
2026-04-21 06:48 22.66210 113.79827 218 ft 126 kts 155°
2026-04-21 06:48 22.65421 113.80254 75 ft 128 kts 155°
2026-04-21 06:48 22.64670 113.80662 27 ft 106 kts 155°
2026-04-21 06:49 22.64122 113.80952 27 ft 65 kts 153°
2026-04-21 06:49 22.63852 113.81104 27 ft 22 kts 153°
2026-04-21 06:49 22.63716 113.81179 27 ft 21 kts 154°
2026-04-21 06:49 22.63588 113.81233 27 ft 18 kts 163°
2026-04-21 06:50 22.63467 113.81254 27 ft 16 kts 180°
2026-04-21 06:50 22.63359 113.81242 27 ft 15 kts 202°
2026-04-21 06:50 22.63295 113.81158 27 ft 14 kts 248°
2026-04-21 06:50 22.63282 113.81056 27 ft 12 kts 257°
2026-04-21 06:51 22.63245 113.80976 27 ft 11 kts 243°
2026-04-21 06:51 22.63210 113.80901 27 ft 7 kts 243°
2026-04-21 06:51 22.63190 113.80849 27 ft 7 kts 253°
2026-04-21 06:51 22.63183 113.80802 27 ft 3 kts 262°
2026-04-21 06:52 22.63177 113.80772 27 ft 4 kts 253°
2026-04-21 06:52 22.63168 113.80744 27 ft 1 kts 248°
2026-04-21 06:52 22.63162 113.80730 27 ft 2 kts 244°
2026-04-21 06:52 22.63157 113.80720 27 ft 0 kts 244°